This demonstration page uses our WeatherBlox Daily Observations layout. Learn more.

Left ArrowRight Arrow

39.12711, -84.51439

Hourly Observations for October 24, 2018

Temp ( °F °C ) Dew Point ( °F °C ) Humidity (%) Winds ( mph kmh ) Pressure ( in mb ) Visibility ( mi km ) Precip ( " mm )
12:53 am 00:53 Clear 43 6.1 36 2.2 76 76 N 3 6 30.31 1026 10 16 N/A
1:53 am 01:53 Clear 40 4.4 36 2.2 86 86 E 3 6 30.32 1027 10 16 N/A
2:53 am 02:53 Clear 38 3.3 37 2.8 97 97 N N/A 30.33 1027 10 16 N/A
3:53 am 03:53 Clear 37 2.8 36 2.2 96 96 N N/A 30.34 1027 10 16 N/A
4:53 am 04:53 Clear 38 3.3 37 2.8 97 97 N N/A 30.34 1027 10 16 N/A
5:53 am 05:53 Clear 35 1.7 35 1.7 100 100 N N/A 30.36 1028 10 16 N/A
6:53 am 06:53 Clear 34 1.1 34 1.1 100 100 N N/A 30.37 1028 10 16 N/A
7:53 am 07:53 Clear 33 0.6 33 0.6 100 100 N N/A 30.37 1029 10 16 N/A
8:53 am 08:53 Sunny 35 1.7 35 1.7 100 100 N N/A 30.40 1029 10 16 N/A
9:53 am 09:53 Sunny 43 6.1 38 3.3 82 82 ENE 5 7 30.41 1030 10 16 N/A
10:53 am 10:53 Sunny 47 8.3 38 3.3 71 71 ENE 5 7 30.42 1030 10 16 N/A
11:53 am 11:53 Sunny 50 10 39 3.9 66 66 N N/A 30.41 1030 10 16 N/A
12:53 pm 12:53 Sunny 53 11.7 37 2.8 55 55 NNE 6 9 30.40 1029 10 16 N/A
1:53 pm 13:53 Sunny 55 12.8 36 2.2 49 49 VRB 6 9 30.37 1029 10 16 N/A
2:53 pm 14:53 Sunny 57 13.9 35 1.7 44 44 VRB 7 11 30.36 1028 10 16 N/A
3:53 pm 15:53 Sunny 57 13.9 34 1.1 42 42 ENE 12 19 30.33 1027 10 16 N/A
4:53 pm 16:53 Sunny 56 13.3 32 undefined 40 40 NE 7 11 30.32 1027 10 16 N/A
5:53 pm 17:53 Sunny 54 12.2 33 0.6 45 45 NE 6 9 30.31 1026 10 16 N/A
6:53 pm 18:53 Clear 49 9.4 38 3.3 66 66 N N/A 30.31 1027 10 16 N/A
7:53 pm 19:53 Clear 44 6.7 38 3.3 79 79 N N/A 30.31 1026 10 16 N/A
8:53 pm 20:53 Clear 40 4.4 38 3.3 93 93 N N/A 30.32 1027 10 16 N/A
9:53 pm 21:53 Clear 38 3.3 37 2.8 97 97 ENE 3 6 30.33 1027 10 16 N/A
10:53 pm 22:53 Clear 36 2.2 36 2.2 100 100 N N/A 30.34 1027 10 16 N/A
11:53 pm 23:53 Clear 36 2.2 35 1.7 97 97 N N/A 30.33 1027 10 16 N/A

Powered by AerisWeather